FW9555 Weather Reports


Display with metric or nautical units.
time (UTC)temp
F
wind
direction
speed
MPH
gust
MPH
rain 1hr
in
rain 24hr
in
rain mn
in
humidity
%
barometer
mb
20260906120435 71 286 0.0 0.0 0.00 0.00 0.00 99 1016.3
20260906115931 70 354 1.0 1.0 0.00 0.00 0.00 99 1016.4
20260906115427 70 0 0.0 1.0 0.00 0.00 0.00 99 1016.0
20260906114926 69 172 0.0 1.0 0.00 0.00 0.00 99 1016.3
20260906114421 69 90 0.0 0.0 0.00 0.00 0.00 99 1016.3
20260906113917 69 345 0.0 0.0 0.00 0.00 0.00 99 1016.1
20260906113415 69 66 0.0 0.0 0.00 0.00 0.00 99 1016.1
20260906112911 69 66 0.0 0.0 0.00 0.00 0.00 99 1016.0
20260906112407 68 53 0.0 2.0 0.00 0.00 0.00 99 1015.9
20260906111902 68 352 0.0 0.0 0.00 0.00 0.00 99 1016.0
20260906111401 68 352 0.0 0.0 0.00 0.00 0.00 99 1015.9
20260906110856 68 352 0.0 0.0 0.00 0.00 0.00 99 1016.0
20260906110352 68 0 0.0 0.0 0.00 0.00 0.00 99 1016.0
20260906105851 68 0 0.0 0.0 0.00 0.00 0.00 99 1015.9
20260906105347 68 81 0.0 0.0 0.00 0.00 0.00 99 1015.8
20260906104842 68 71 0.0 1.0 0.00 0.00 0.00 99 1015.9
20260906104341 69 345 0.0 1.0 0.00 0.00 0.00 99 1015.9
20260906103839 69 8 0.0 0.0 0.00 0.00 0.00 99 1015.9
20260906103338 69 8 0.0 0.0 0.00 0.00 0.00 99 1015.8
20260906102834 69 8 0.0 0.0 0.00 0.00 0.00 99 1015.7
20260906102333 69 8 0.0 0.0 0.00 0.00 0.00 99 1015.3
20260906101828 69 8 0.0 1.0 0.00 0.00 0.00 99 1015.4
20260906101323 69 353 0.0 0.0 0.00 0.00 0.00 99 1015.4
20260906100819 69 353 0.0 0.0 0.00 0.00 0.00 99 1015.4
20260906100318 69 23 0.0 0.0 0.00 0.00 0.00 99 1015.4
20260906095813 69 23 0.0 0.0 0.00 0.00 0.00 99 1015.4
20260906095309 69 23 0.0 0.0 0.00 0.00 0.00 99 1015.2
20260906094808 69 23 0.0 1.0 0.00 0.00 0.00 99 1015.1
20260906094303 69 90 0.0 0.0 0.00 0.00 0.00 99 1015.3
20260906093759 69 63 0.0 1.0 0.00 0.00 0.00 99 1015.1
20260906093255 69 15 0.0 1.0 0.00 0.00 0.00 99 1015.2
20260906092749 69 15 0.0 0.0 0.00 0.00 0.00 99 1014.9
20260906092244 69 0 0.0 0.0 0.00 0.00 0.00 99 1014.8
20260906091740 69 0 1.0 1.0 0.00 0.00 0.00 99 1015.1
20260906091236 69 0 0.0 0.0 0.00 0.00 0.00 99 1015.0
20260906090732 69 0 0.0 0.0 0.00 0.00 0.00 99 1014.9
20260906090231 69 0 0.0 0.0 0.00 0.00 0.00 99 1014.7
20260906085731 69 81 0.0 0.0 0.00 0.00 0.00 99 1014.9
20260906085230 69 81 0.0 1.0 0.00 0.00 0.00 99 1014.7
20260906084725 69 60 0.0 0.0 0.00 0.00 0.00 99 1015.0
20260906084224 69 60 0.0 0.0 0.00 0.00 0.00 99 1014.8
20260906083720 69 90 0.0 0.0 0.00 0.00 0.00 99 1014.9
20260906083215 69 8 0.0 0.0 0.00 0.00 0.00 99 1014.9
20260906082710 69 90 0.0 0.0 0.00 0.00 0.00 99 1014.6
20260906082205 69 90 0.0 0.0 0.00 0.00 0.00 99 1014.8
20260906081701 69 90 0.0 0.0 0.00 0.00 0.00 99 1014.7
20260906081150 69 90 0.0 2.0 0.00 0.00 0.00 99 1014.4
20260906080647 69 337 0.0 0.0 0.00 0.00 0.00 99 1014.5
20260906080143 69 337 0.0 0.0 0.00 0.00 0.00 99 1014.3
20260906075642 70 0 0.0 0.0 0.00 0.00 0.00 99 1014.3
20260906075136 70 0 0.0 0.0 0.00 0.00 0.00 99 1014.1
20260906074632 70 0 0.0 0.0 0.00 0.00 0.00 99 1014.2
20260906074131 70 352 0.0 0.0 0.00 0.00 0.00 99 1014.3
20260906073626 69 353 0.0 0.0 0.00 0.00 0.00 99 1014.0
20260906073122 70 81 0.0 0.0 0.00 0.00 0.00 99 1014.2
20260906072616 70 81 0.0 0.0 0.00 0.00 0.00 99 1014.1
20260906072112 70 73 0.0 2.0 0.00 0.00 0.00 99 1014.3
20260906071608 70 74 0.0 0.0 0.00 0.00 0.00 99 1014.1
20260906071103 70 74 0.0 0.0 0.00 0.00 0.00 99 1014.2
20260906070600 70 74 0.0 0.0 0.00 0.00 0.00 99 1014.2
20260906070055 71 74 0.0 0.0 0.00 0.00 0.00 99 1014.4
20260906065554 70 0 0.0 1.0 0.00 0.00 0.00 99 1014.7
20260906065050 70 5 1.0 1.0 0.00 0.00 0.00 99 1014.5
20260906064546 70 15 0.0 0.0 0.00 0.00 0.00 99 1014.8
20260906064040 70 15 0.0 0.0 0.00 0.00 0.00 99 1014.6
20260906063536 70 80 0.0 3.0 0.00 0.00 0.00 99 1014.7
20260906063031 70 0 0.0 0.0 0.00 0.00 0.00 99 1014.7
20260906062521 70 90 0.0 0.0 0.00 0.00 0.00 99 1014.8
20260906062015 70 90 0.0 0.0 0.00 0.00 0.00 99 1014.9
20260906061512 70 15 0.0 0.0 0.00 0.00 0.00 99 1015.1
20260906061011 70 0 0.0 0.0 0.00 0.00 0.00 99 1014.8
20260906060508 70 0 0.0 0.0 0.00 0.00 0.00 99 1014.8
20260906060004 70 0 0.0 0.0 0.00 0.00 0.00 99 1015.1
20260906055459 70 0 0.0 0.0 0.00 0.00 0.00 99 1014.9
20260906054955 70 294 0.0 1.0 0.00 0.00 0.00 99 1015.2
20260906054455 70 0 0.0 0.0 0.00 0.00 0.00 99 1015.1
20260906053950 70 23 0.0 0.0 0.00 0.00 0.00 99 1015.3
20260906053447 70 23 0.0 1.0 0.00 0.00 0.00 99 1015.3
20260906052942 70 81 0.0 0.0 0.00 0.00 0.00 99 1015.2
20260906052438 71 81 0.0 0.0 0.00 0.00 0.00 99 1015.2
20260906051935 71 81 0.0 2.0 0.00 0.00 0.00 99 1015.2
20260906051430 70 337 0.0 0.0 0.00 0.00 0.00 99 1015.5
20260906050925 70 23 1.0 1.0 0.00 0.00 0.00 99 1015.4
20260906050425 70 40 0.0 0.0 0.00 0.00 0.00 99 1015.7
20260906045924 70 90 0.0 1.0 0.00 0.00 0.00 99 1015.7
20260906045423 70 352 0.0 0.0 0.00 0.00 0.00 99 1015.7
20260906044919 70 352 0.0 0.0 0.00 0.00 0.00 99 1015.7
20260906044414 70 352 0.0 0.0 0.00 0.00 0.00 99 1015.9
20260906043909 71 352 0.0 0.0 0.00 0.00 0.00 99 1016.0
20260906043406 70 352 0.0 0.0 0.00 0.00 0.00 99 1015.9
20260906042901 70 35 0.0 0.0 0.00 0.00 0.00 99 1015.8
20260906042359 70 35 0.0 0.0 0.00 0.00 0.00 98 1015.7
20260906041855 71 35 0.0 0.0 0.00 0.00 0.00 99 1015.5
20260906041351 70 35 0.0 1.0 0.00 0.00 0.00 98 1015.7
20260906040845 70 90 0.0 2.0 0.00 0.00 0.00 98 1015.8
20260906040340 70 78 0.0 0.0 0.00 0.00 0.00 98 1016.0
20260906035836 71 78 0.0 0.0 0.00 0.00 0.00 98 1016.0
20260906035331 71 78 0.0 0.0 0.00 0.00 0.00 98 1015.9
20260906034826 71 78 0.0 0.0 0.00 0.00 0.00 98 1016.0
20260906034321 71 78 0.0 0.0 0.00 0.00 0.00 98 1016.0
20260906033817 71 78 0.0 0.0 0.00 0.00 0.00 97 1016.1
20260906033316 71 78 0.0 0.0 0.00 0.00 0.00 97 1016.1
20260906032812 71 78 0.0 0.0 0.00 0.00 0.00 97 1015.9
20260906032308 71 60 0.0 1.0 0.00 0.00 0.00 97 1015.9
20260906031803 71 262 0.0 1.0 0.00 0.00 0.00 97 1016.0
20260906031259 71 270 0.0 0.0 0.00 0.00 0.00 96 1016.1
20260906030758 71 270 0.0 0.0 0.00 0.00 0.00 96 1016.2
20260906030254 71 0 0.0 0.0 0.00 0.00 0.00 96 1016.2
20260906025753 71 0 0.0 0.0 0.00 0.00 0.00 96 1015.8
20260906025247 71 0 0.0 0.0 0.00 0.00 0.00 96 1016.0
20260906024746 72 0 0.0 0.0 0.00 0.00 0.00 96 1015.7
20260906024245 72 270 0.0 0.0 0.00 0.00 0.00 95 1015.8
20260906023741 72 270 0.0 0.0 0.00 0.00 0.00 95 1015.8
20260906023236 72 270 0.0 0.0 0.00 0.00 0.00 95 1015.5
20260906022732 72 0 0.0 0.0 0.00 0.00 0.00 94 1015.7
20260906022227 72 0 0.0 0.0 0.00 0.00 0.00 94 1015.4
20260906021723 72 0 0.0 0.0 0.00 0.00 0.00 94 1015.4
20260906021222 72 0 0.0 0.0 0.00 0.00 0.00 94 1015.5
20260906020717 72 0 0.0 0.0 0.00 0.00 0.00 94 1015.5
20260906020211 72 0 0.0 0.0 0.00 0.00 0.00 94 1015.5
20260906015706 72 0 0.0 0.0 0.00 0.00 0.00 94 1015.4
20260906015204 72 0 0.0 0.0 0.00 0.00 0.00 94 1015.2
20260906014659 73 0 0.0 0.0 0.00 0.00 0.00 94 1015.2
20260906014155 73 352 0.0 0.0 0.00 0.00 0.00 94 1015.4
20260906013651 72 352 0.0 0.0 0.00 0.00 0.00 94 1015.3
20260906013146 72 294 0.0 0.0 0.00 0.00 0.00 94 1015.4
20260906012645 72 294 0.0 0.0 0.00 0.00 0.00 93 1015.2
20260906012140 73 294 0.0 0.0 0.00 0.00 0.00 93 1015.2
20260906011636 73 294 0.0 0.0 0.00 0.00 0.00 93 1015.0
20260906011131 73 294 0.0 0.0 0.00 0.00 0.00 92 1015.1
20260906010626 73 294 0.0 0.0 0.00 0.00 0.00 92 1014.9
20260906010122 73 294 0.0 0.0 0.00 0.00 0.00 91 1014.9
20260906005621 74 294 0.0 0.0 0.00 0.00 0.00 91 1014.8
20260906005121 74 294 0.0 0.0 0.00 0.00 0.00 90 1014.9
20260906004620 74 294 0.0 0.0 0.00 0.00 0.00 90 1014.8
20260906004115 74 294 0.0 0.0 0.00 0.00 0.00 89 1014.9
20260906003610 75 294 0.0 0.0 0.00 0.00 0.00 89 1014.9
20260906003106 75 294 0.0 0.0 0.00 0.00 0.00 89 1014.7
20260906002601 75 294 0.0 0.0 0.00 0.00 0.00 88 1014.9
20260906002055 75 294 0.0 0.0 0.00 0.00 0.00 88 1014.9
20260906001551 76 294 0.0 0.0 0.00 0.00 0.00 88 1014.8
20260906001045 76 294 0.0 0.0 0.00 0.00 0.00 87 1014.8
20260906000541 76 286 1.0 1.0 0.00 0.00 0.00 86 1014.7
20260906000035 77 294 0.0 0.0 0.00 0.00 0.00 85 1014.5
20260905235530 77 294 0.0 0.0 0.00 0.00 0.00 84 1014.6
20260905235025 77 294 0.0 0.0 0.00 0.00 0.00 83 1014.4
20260905234521 78 294 0.0 0.0 0.00 0.00 0.00 82 1014.2
20260905234021 78 294 0.0 0.0 0.00 0.00 0.00 81 1014.3
20260905233515 79 294 0.0 0.0 0.00 0.00 0.00 80 1013.8
20260905233015 80 294 0.0 0.0 0.00 0.00 0.00 79 1014.0
20260905232511 80 294 0.0 0.0 0.00 0.00 0.00 78 1014.1
20260905232006 81 294 0.0 0.0 0.00 0.00 0.00 77 1013.9
20260905231501 82 294 0.0 0.0 0.00 0.00 0.00 75 1013.9
20260905230958 82 294 0.0 1.0 0.00 0.00 0.00 73 1013.9
20260905230456 83 270 0.0 0.0 0.00 0.00 0.00 71 1014.0
20260905225954 84 270 0.0 0.0 0.00 0.00 0.00 69 1014.2
20260905225450 84 276 0.0 2.0 0.00 0.00 0.00 67 1014.4
20260905224945 87 282 2.0 2.0 0.00 0.00 0.00 66 1014.4
20260905224440 86 270 0.0 0.0 0.00 0.00 0.00 69 1014.2
20260905223939 85 277 0.0 3.0 0.00 0.00 0.00 65 1014.1
20260905223437 85 345 0.0 2.0 0.00 0.00 0.00 66 1013.9
20260905222932 85 279 1.0 2.0 0.00 0.00 0.00 67 1014.0
20260905222432 86 334 1.0 2.0 0.00 0.00 0.00 67 1013.9
20260905221927 86 286 0.0 2.0 0.00 0.00 0.00 65 1014.1
20260905221424 87 270 0.0 0.0 0.00 0.00 0.00 67 1014.1
20260905220920 84 270 0.0 0.0 0.00 0.00 0.00 68 1014.3
20260905220416 83 328 0.0 0.0 0.00 0.00 0.00 69 1014.1
20260905215915 82 289 2.0 2.0 0.00 0.00 0.00 67 1014.1
20260905215410 83 12 0.0 3.0 0.00 0.00 0.00 67 1014.1
20260905214907 83 300 1.0 2.0 0.00 0.00 0.00 67 1014.2
20260905214402 84 319 2.0 2.0 0.00 0.00 0.00 68 1014.5
20260905213857 82 262 1.0 1.0 0.00 0.00 0.00 73 1014.5
20260905213353 81 325 1.0 3.0 0.00 0.00 0.00 72 1014.7
20260905212848 82 266 3.0 3.0 0.00 0.00 0.00 75 1014.9
20260905212342 81 0 0.0 2.0 0.00 0.00 0.00 76 1014.9
20260905211842 81 60 0.0 0.0 0.00 0.00 0.00 77 1015.0
20260905211338 81 60 0.0 0.0 0.00 0.00 0.00 77 1014.9
20260905210834 80 352 0.0 2.0 0.00 0.00 0.00 76 1014.9
20260905210333 80 12 4.0 5.0 0.00 0.00 0.00 76 1015.1
20260905205832 80 251 2.0 3.0 0.00 0.00 0.00 77 1014.8
20260905205327 80 192 0.0 3.0 0.00 0.00 0.00 78 1014.8
20260905204827 80 61 2.0 3.0 0.00 0.00 0.00 77 1015.0
20260905204323 80 32 2.0 3.0 0.00 0.00 0.00 80 1015.2
20260905203821 80 352 0.0 0.0 0.00 0.00 0.00 82 1014.9
20260905203318 79 16 2.0 2.0 0.00 0.00 0.00 81 1014.6
20260905202813 79 345 0.0 1.0 0.00 0.00 0.00 81 1015.0
20260905202308 79 340 0.0 0.0 0.00 0.00 0.00 81 1014.8
20260905201803 79 320 2.0 3.0 0.00 0.00 0.00 80 1014.8
20260905201259 79 35 0.0 0.0 0.00 0.00 0.00 80 1014.7
20260905200753 79 23 0.0 0.0 0.00 0.00 0.00 79 1015.1
20260905200249 79 23 0.0 2.0 0.00 0.00 0.00 79 1014.9
20260905195746 79 345 0.0 4.0 0.00 0.00 0.00 78 1015.3
20260905195242 80 84 0.0 2.0 0.00 0.00 0.00 77 1015.5
20260905194738 80 0 0.0 0.0 0.00 0.00 0.00 77 1015.5
20260905194236 80 311 0.0 4.0 0.00 0.00 0.00 76 1015.2
20260905193731 80 315 0.0 2.0 0.00 0.00 0.00 76 1014.8
20260905193226 80 320 0.0 0.0 0.00 0.00 0.00 76 1014.9
20260905192721 80 320 0.0 0.0 0.00 0.00 0.00 76 1014.9
20260905192218 80 320 0.0 2.0 0.00 0.00 0.00 74 1014.9
20260905191717 81 279 0.0 1.0 0.00 0.00 0.00 74 1014.9
20260905191215 82 0 1.0 1.0 0.00 0.00 0.00 73 1014.5
20260905190714 82 340 1.0 2.0 0.00 0.00 0.00 73 1014.2
20260905190213 82 300 0.0 2.0 0.00 0.00 0.00 73 1014.0
20260905185712 83 325 0.0 3.0 0.00 0.00 0.00 71 1014.4
20260905185207 83 200 0.0 3.0 0.00 0.00 0.00 71 1014.3
20260905184701 84 343 5.0 5.0 0.00 0.00 0.00 68 1014.8
20260905184200 85 311 0.0 6.0 0.00 0.00 0.00 66 1015.0
20260905183654 89 355 2.0 9.0 0.00 0.00 0.00 58 1015.7
20260905183149 95 301 3.0 5.0 0.00 0.00 0.00 53 1015.0
20260905182649 95 290 4.0 4.0 0.00 0.00 0.00 56 1014.5
20260905182149 95 336 2.0 3.0 0.00 0.00 0.00 54 1014.4
20260905181644 95 337 0.0 2.0 0.00 0.00 0.00 58 1014.4
20260905181143 96 172 0.0 3.0 0.00 0.00 0.00 54 1014.7
20260905180638 96 26 2.0 2.0 0.00 0.00 0.00 51 1014.8
20260905180133 96 311 2.0 5.0 0.00 0.00 0.00 55 1014.7
20260905175632 95 258 3.0 5.0 0.00 0.00 0.00 57 1015.0
20260905175127 94 14 1.0 2.0 0.00 0.00 0.00 59 1015.2
20260905174623 94 342 2.0 4.0 0.00 0.00 0.00 60 1015.3
20260905174119 95 294 0.0 3.0 0.00 0.00 0.00 56 1015.5
20260905173615 94 15 0.0 2.0 0.00 0.00 0.00 59 1015.2
20260905173110 94 195 2.0 5.0 0.00 0.00 0.00 58 1015.7
20260905172609 95 281 5.0 7.0 0.00 0.00 0.00 60 1015.5
20260905172104 95 63 0.0 2.0 0.00 0.00 0.00 57 1015.8
20260905171600 95 339 4.0 5.0 0.00 0.00 0.00 57 1016.0
20260905171056 95 20 1.0 5.0 0.00 0.00 0.00 58 1015.8
20260905170553 95 282 0.0 5.0 0.00 0.00 0.00 62 1015.9
20260905170048 96 0 2.0 2.0 0.00 0.00 0.00 58 1016.2
20260905165543 95 0 2.0 2.0 0.00 0.00 0.00 57 1016.3
20260905165037 95 324 2.0 5.0 0.00 0.00 0.00 58 1016.1
20260905164532 95 327 0.0 3.0 0.00 0.00 0.00 57 1016.2
20260905164027 95 0 1.0 2.0 0.00 0.00 0.00 61 1016.4
20260905163523 96 294 0.0 1.0 0.00 0.00 0.00 63 1016.4
20260905163019 96 352 0.0 0.0 0.00 0.00 0.00 63 1016.4
20260905162514 95 352 0.0 0.0 0.00 0.00 0.00 64 1016.8
20260905162009 93 325 1.0 3.0 0.00 0.00 0.00 66 1016.6
20260905161509 93 285 1.0 2.0 0.00 0.00 0.00 62 1016.6
20260905161006 94 41 0.0 2.0 0.00 0.00 0.00 62 1016.8
20260905160500 94 0 0.0 2.0 0.00 0.00 0.00 72 1016.8
20260905155959 93 111 0.0 3.0 0.00 0.00 0.00 68 1016.7
20260905155455 92 60 0.0 2.0 0.00 0.00 0.00 68 1016.6
20260905154953 92 8 0.0 2.0 0.00 0.00 0.00 66 1016.9
20260905154448 92 342 2.0 4.0 0.00 0.00 0.00 68 1016.9
20260905153944 93 0 0.0 0.0 0.00 0.00 0.00 73 1016.9
20260905153440 92 192 1.0 2.0 0.00 0.00 0.00 71 1016.9
20260905152939 91 8 0.0 2.0 0.00 0.00 0.00 68 1016.9
20260905152439 90 7 3.0 3.0 0.00 0.00 0.00 71 1016.7
20260905151934 89 0 1.0 2.0 0.00 0.00 0.00 74 1017.0
20260905151430 90 23 1.0 1.0 0.00 0.00 0.00 73 1016.7
20260905150925 89 180 0.0 0.0 0.00 0.00 0.00 76 1016.9
20260905150425 87 264 0.0 2.0 0.00 0.00 0.00 77 1017.0
20260905145921 86 345 0.0 3.0 0.00 0.00 0.00 77 1017.1
20260905145416 86 32 0.0 2.0 0.00 0.00 0.00 80 1017.1
20260905144915 86 327 0.0 2.0 0.00 0.00 0.00 83 1017.0
20260905144411 85 281 3.0 3.0 0.00 0.00 0.00 85 1016.9
20260905143910 84 288 0.0 3.0 0.00 0.00 0.00 84 1016.8
20260905143404 84 270 0.0 2.0 0.00 0.00 0.00 85 1016.9
20260905142904 83 0 0.0 2.0 0.00 0.00 0.00 86 1017.1
20260905142403 84 337 0.0 2.0 0.00 0.00 0.00 87 1017.1
20260905141858 82 326 0.0 2.0 0.00 0.00 0.00 88 1017.2
20260905141353 82 303 2.0 2.0 0.00 0.00 0.00 88 1017.1
20260905140850 82 274 3.0 4.0 0.00 0.00 0.00 88 1017.2
20260905140350 81 306 0.0 3.0 0.00 0.00 0.00 89 1017.3
20260905135848 80 301 2.0 2.0 0.00 0.00 0.00 91 1017.4
20260905135344 80 188 0.0 1.0 0.00 0.00 0.00 92 1017.5
20260905134839 80 270 0.0 1.0 0.00 0.00 0.00 92 1017.3
20260905134338 79 345 1.0 3.0 0.00 0.00 0.00 92 1017.2
20260905133833 79 319 2.0 2.0 0.00 0.00 0.00 95 1017.1
20260905133328 78 270 0.0 1.0 0.00 0.00 0.00 97 1017.4
20260905132827 78 278 0.0 1.0 0.00 0.00 0.00 97 1017.3
20260905132323 78 261 0.0 0.0 0.00 0.00 0.00 98 1017.2
20260905131823 77 261 0.0 2.0 0.00 0.00 0.00 98 1017.4
20260905131318 77 286 0.0 2.0 0.00 0.00 0.00 99 1017.5
20260905130814 76 90 0.0 2.0 0.00 0.00 0.00 99 1017.6
20260905130312 76 11 0.0 2.0 0.00 0.00 0.00 99 1017.1
20260905125808 75 6 0.0 0.0 0.00 0.00 0.00 99 1017.4
20260905125305 75 8 0.0 0.0 0.00 0.00 0.00 99 1017.3
20260905124759 75 0 0.0 2.0 0.00 0.00 0.00 99 1017.5
20260905124254 75 294 0.0 2.0 0.00 0.00 0.00 99 1017.3
20260905123749 75 294 0.0 2.0 0.00 0.00 0.00 99 1017.3
20260905123247 75 304 0.0 2.0 0.00 0.00 0.00 99 1017.4
20260905122746 75 334 2.0 2.0 0.00 0.00 0.00 99 1017.5
20260905122240 74 0 0.0 0.0 0.00 0.00 0.00 99 1017.4
20260905121735 74 345 0.0 1.0 0.00 0.00 0.00 99 1017.5
20260905121232 74 300 0.0 0.0 0.00 0.00 0.00 99 1017.8